Regional Weather Roundup
Issued by NWS Newport/Morehead, NC

Home | Current Version | Previous Version | Text Only | Print | Product List | Glossary On
Versions: 1 2 3 4 5 6 7 8 9 10 11 12 13 14 15 16 17 18 19 20 21 22 23 24 25 26 27 28 29 30 31 32 33 34 35 36 37 38 39 40 41 42 43 44 45 46 47 48 49 50
000
ASUS42 KMHX 200725
RWRMHX
WEATHER ROUNDUP FOR EASTERN NORTH CAROLINA
NATIONAL WEATHER SERVICE NEWPORT/MOREHEAD CITY NC
200 AM EST MON NOV 20 2017

NOTE: "FAIR" INDICATES FEW OR NO CLOUDS BELOW 12,000 FEET
WITH NO SIGNIFICANT WEATHER AND/OR OBSTRUCTIONS TO VISIBILITY

NCZ015>017-031-032-045>047-102-103-200800-
NORTH COAST

CITY           SKY/WX    TMP DP  RH WIND       PRES   REMARKS
EDENTON        CLEAR     42  32  67 CALM      30.09R
ELIZABETH CITY CLEAR     38  30  73 W9        30.07R
KITTY HAWK     SUNNY     44  31  60 NW6       30.05R
MANTEO         CLEAR     45  32  60 N8        30.07R

$$

NCZ045>047-081-094-103-104-200800-
CENTRAL COAST

CITY           SKY/WX    TMP DP  RH WIND       PRES   REMARKS
FRISCO         CLEAR     47  34  60 NW10G22   30.05R

$$

NCZ095-097-098-100-101-200800-
SOUTHERN COAST

CITY           SKY/WX    TMP DP  RH WIND       PRES   REMARKS
BEAUFORT       CLEAR     43  30  60 N8        30.09R
CEDAR ISLAND   NOT AVBL
JACKSONVILLE   NOT AVBL
PINEY ISLAND   NOT AVBL
WILMINGTON     CLEAR     40  31  70 CALM      30.12R


$$

NCZ011>013-027>030-043-044-078>080-089-090>093-098-200800-
COASTAL PLAIN

CITY           SKY/WX    TMP DP  RH WIND       PRES   REMARKS
AHOSKIE        CLEAR     33  28  80 CALM      30.09R
CLINTON        CLEAR     35  31  86 CALM      30.13R
ELIZABETHTOWN  NOT AVBL
GOLDSBORO      CLEAR     38  28  69 W5        30.09R
GREENVILLE     CLEAR     34  30  86 CALM      30.11R
HAVELOCK       CLEAR     42  29  59 NW7       30.10R
KENANSVILLE    CLEAR     30  27  86 CALM      30.12R
KINSTON        CLEAR     32  29  87 W3        30.12R
NEW BERN       PTCLDY    38  30  73 W5        30.11R
RICHLANDS      CLEAR     31  28  89 CALM      30.12R
ROCKY MOUNT    CLEAR     37  28  70 W5        30.11R
WASHINGTON     CLEAR     38  28  68 CALM      30.10R
WHITEVILLE     CLEAR     40  29  65 CALM      30.12R

$$

AMZ130-135-150-152-154-156-158-170-250-252-270-ANZ085-086-088-633-658-670-200800-
MARINE OBSERVATIONS

STATION/POSITION TIME  TEMP    WIND        PRES    WAVE   SWELL
                       AIR SEA DIR/SP/G            HT/PER HT/PER
                 (UTC) (F)     (DEG/KT/KT) (MB)    (FT/S) (FT/S)
CHESAPEAKE LIGHT NOT AVBL
64 E VA BEACH    0650   51 60  310/ 17/ 21 1016.3    8/ 8
DUCK             0700   45 60  300/ 12/ 15 1017.2
2 E DUCK         0700      61                N/A     4/ 6
OREGON INLET     0700   46 57  300/ 13/ 16 1017.4
13E OREGON INLT  0648      62                N/A     7/ 7   5/ 7
HATTERAS CG      0700   48 60  330/ 21/ 25 1017.4
DIAMOND BUOY     0710   51 67  320/ 19/ 23 1017.8
CAPE LOOKOUT     0700          330/ 17/ 21 1019.1
BEAUFORT LAB     0700   45 60  340/  7/ 11 1019.0
30 SE NEW RVR IN 0708   51 68   10/ 14/ 19 1019.3
30 SE NEW RVR IN 0700      68                N/A     5/ 5
27 SE WRIGHTSVLE 0708   51 68   10/ 19/ 27 1019.3
5 SE WRIGHTSVLE  0708   49 64  360/ 14/ 19 1019.3
225 S CAPE HAT   0650   67 76  340/ 19/ 25 1015.0    8/ 8   3/12
41 SE CHARLESTON 0710   60 73   20/ 17/ 23 1019.0

$$




USA.gov is the U.S. government's official web portal to all federal, state and local government web resources and services.